GRL2647 BGBW-BGKK

Flight info

Callsign GRL2647
Flight time N/A
Altitude 13000
Route DCT GOLUG DCT PORSU DCT KAYAK DCT LUNAL DCT
Aircraft C208/L-SDFGR/C

Departure

Time 2026-04-30 12:04
Airport Narsarsuaq Airport (BGBW)

Arrival

Time N/A
Airport Kulusuk Airport (BGKK)
Time Latitude Longitude Altitude Speed Heading
2026-04-30 11:46 61.16205 -45.41853 65 ft 0 kts 17°
2026-04-30 11:55 61.16185 -45.41862 65 ft 2 kts
2026-04-30 11:55 61.16175 -45.41863 68 ft 2 kts
2026-04-30 11:55 61.16164 -45.41867 70 ft 0 kts 32°
2026-04-30 11:57 61.16166 -45.41865 70 ft 0 kts 33°
2026-04-30 11:57 61.16188 -45.41827 60 ft 6 kts 32°
2026-04-30 11:57 61.16220 -45.41843 77 ft 5 kts 311°
2026-04-30 11:58 61.16237 -45.41886 70 ft 4 kts 308°
2026-04-30 11:58 61.16291 -45.42019 66 ft 15 kts 313°
2026-04-30 11:58 61.16315 -45.42099 83 ft 4 kts 270°
2026-04-30 11:58 61.16271 -45.42225 73 ft 15 kts 220°
2026-04-30 11:59 61.16195 -45.42361 75 ft 14 kts 220°
2026-04-30 11:59 61.16121 -45.42490 71 ft 13 kts 220°
2026-04-30 11:59 61.16056 -45.42604 65 ft 12 kts 220°
2026-04-30 11:59 61.15996 -45.42711 66 ft 11 kts 218°
2026-04-30 12:00 61.15912 -45.42858 57 ft 22 kts 221°
2026-04-30 12:00 61.15795 -45.43058 60 ft 21 kts 221°
2026-04-30 12:00 61.15688 -45.43249 54 ft 19 kts 220°
2026-04-30 12:00 61.15585 -45.43429 49 ft 19 kts 219°
2026-04-30 12:01 61.15501 -45.43573 46 ft 11 kts 212°
2026-04-30 12:01 61.15444 -45.43652 45 ft 8 kts 259°
2026-04-30 12:01 61.15466 -45.43641 45 ft 6 kts 67°
2026-04-30 12:01 61.15493 -45.43588 46 ft 5 kts 44°
2026-04-30 12:02 61.15498 -45.43578 46 ft 0 kts 41°
2026-04-30 12:03 61.15509 -45.43560 46 ft 16 kts 39°
2026-04-30 12:03 61.16302 -45.42100 332 ft 100 kts 42°
2026-04-30 12:03 61.16855 -45.41136 561 ft 114 kts 39°
2026-04-30 12:04 61.17534 -45.39982 590 ft 136 kts 41°
2026-04-30 12:04 61.18301 -45.38641 617 ft 150 kts 41°
2026-04-30 12:04 61.19097 -45.37241 793 ft 146 kts 41°
2026-04-30 12:04 61.19847 -45.35922 1098 ft 136 kts 41°
2026-04-30 12:05 61.20551 -45.34680 1413 ft 131 kts 41°
2026-04-30 12:05 61.21234 -45.33477 1764 ft 127 kts 41°
2026-04-30 12:05 61.21891 -45.32315 2136 ft 124 kts 41°
2026-04-30 12:05 61.22541 -45.31170 2522 ft 121 kts 43°
2026-04-30 12:06 61.23182 -45.30034 2850 ft 121 kts 43°
2026-04-30 12:06 61.23824 -45.28898 3175 ft 122 kts 43°
2026-04-30 12:06 61.24472 -45.27751 3478 ft 122 kts 44°
2026-04-30 12:06 61.25102 -45.26634 3738 ft 117 kts 44°
2026-04-30 12:07 61.25718 -45.25540 3982 ft 116 kts 41°
2026-04-30 12:07 61.26334 -45.24461 4198 ft 115 kts 41°
2026-04-30 12:07 61.26945 -45.23377 4444 ft 116 kts 42°
2026-04-30 12:07 61.27569 -45.22275 4668 ft 120 kts 42°
2026-04-30 12:08 61.28212 -45.21132 4941 ft 126 kts 41°
2026-04-30 12:08 61.28917 -45.19864 4993 ft 143 kts 42°
2026-04-30 12:08 61.29714 -45.18445 5006 ft 157 kts 41°
2026-04-30 12:08 61.30569 -45.16924 5012 ft 166 kts 41°
2026-04-30 12:09 61.31459 -45.15335 5007 ft 172 kts 41°
2026-04-30 12:09 61.32375 -45.13700 5011 ft 175 kts 41°
2026-04-30 12:09 61.33312 -45.12030 5012 ft 178 kts 41°
2026-04-30 12:09 61.34255 -45.10344 5012 ft 179 kts 41°
2026-04-30 12:10 61.35204 -45.08647 5012 ft 180 kts 41°
2026-04-30 12:10 61.36132 -45.06985 5210 ft 168 kts 41°
2026-04-30 12:10 61.36982 -45.05467 5571 ft 155 kts 41°
2026-04-30 12:10 61.37769 -45.04062 5927 ft 147 kts 40°
2026-04-30 12:11 61.38525 -45.02711 6296 ft 141 kts 40°
2026-04-30 12:11 61.39269 -45.01375 6584 ft 140 kts 38°
2026-04-30 12:11 61.40013 -45.00049 6890 ft 138 kts 38°
2026-04-30 12:11 61.40729 -44.98759 7187 ft 137 kts 37°
2026-04-30 12:12 61.41454 -44.97459 7488 ft 138 kts 35°
2026-04-30 12:12 61.42192 -44.96131 7797 ft 141 kts 34°
2026-04-30 12:12 61.42935 -44.94794 8103 ft 140 kts 33°
2026-04-30 12:12 61.43663 -44.93492 8411 ft 138 kts 33°
2026-04-30 12:13 61.44378 -44.92186 8734 ft 135 kts 30°
2026-04-30 12:13 61.45088 -44.90911 9042 ft 133 kts 29°
2026-04-30 12:13 61.45780 -44.89661 9345 ft 131 kts 27°
2026-04-30 12:13 61.46459 -44.88444 9617 ft 133 kts 25°
2026-04-30 12:14 61.47178 -44.87152 9851 ft 140 kts 27°
2026-04-30 12:14 61.47928 -44.85796 10048 ft 145 kts 26°
2026-04-30 12:14 61.48696 -44.84403 10247 ft 150 kts 27°
2026-04-30 12:14 61.49383 -44.83102 10398 ft 157 kts 26°
2026-04-30 12:15 61.50240 -44.81824 10583 ft 147 kts 15°
2026-04-30 12:15 61.51091 -44.80564 10812 ft 152 kts 22°
2026-04-30 12:15 61.51885 -44.79294 11003 ft 152 kts 21°
2026-04-30 12:15 61.52741 -44.77961 11209 ft 159 kts 22°
2026-04-30 12:16 61.53643 -44.76588 11412 ft 157 kts 20°
2026-04-30 12:16 61.54527 -44.75221 11614 ft 158 kts 21°
2026-04-30 12:16 61.55408 -44.73861 11801 ft 157 kts 20°
2026-04-30 12:16 61.56300 -44.72486 12016 ft 157 kts 19°
2026-04-30 12:17 61.58045 -44.69799 12431 ft 156 kts 18°
2026-04-30 12:17 61.58920 -44.68451 12658 ft 155 kts 18°
2026-04-30 12:17 61.59787 -44.67115 12859 ft 154 kts 17°
2026-04-30 12:18 61.60671 -44.65762 12984 ft 164 kts 17°
2026-04-30 12:18 61.61635 -44.64297 12972 ft 179 kts 19°
2026-04-30 12:18 61.62677 -44.62680 12978 ft 192 kts 21°
2026-04-30 12:18 61.63782 -44.60955 12977 ft 203 kts 22°
2026-04-30 12:19 61.64940 -44.59150 12972 ft 211 kts 23°
2026-04-30 12:19 61.66130 -44.57296 12945 ft 216 kts 23°
2026-04-30 12:19 61.67345 -44.55406 12944 ft 220 kts 24°
2026-04-30 12:19 61.68586 -44.53476 12941 ft 222 kts 24°
2026-04-30 12:20 61.69823 -44.51546 12956 ft 221 kts 24°
2026-04-30 12:20 61.71061 -44.49617 12957 ft 221 kts 24°
2026-04-30 12:20 61.72303 -44.47682 12957 ft 221 kts 24°
2026-04-30 12:20 61.73544 -44.45747 12957 ft 222 kts 24°
2026-04-30 12:21 61.74771 -44.43830 12958 ft 222 kts 24°
2026-04-30 12:21 61.76030 -44.41863 12925 ft 222 kts 24°
2026-04-30 12:21 61.77257 -44.39943 12925 ft 222 kts 24°
2026-04-30 12:21 61.78497 -44.38000 12925 ft 222 kts 24°
2026-04-30 12:22 61.79739 -44.36053 12918 ft 223 kts 24°
2026-04-30 12:22 61.80986 -44.34095 12920 ft 223 kts 24°
2026-04-30 12:22 61.82232 -44.32136 12919 ft 223 kts 24°
2026-04-30 12:22 61.83471 -44.30186 12918 ft 222 kts 24°
2026-04-30 12:23 61.84716 -44.28227 12918 ft 222 kts 24°
2026-04-30 12:23 61.85957 -44.26271 12891 ft 223 kts 23°
2026-04-30 12:23 61.87209 -44.24296 12852 ft 224 kts 22°
2026-04-30 12:23 61.88455 -44.22326 12852 ft 223 kts 22°
2026-04-30 12:24 61.89697 -44.20362 12849 ft 222 kts 22°
2026-04-30 12:24 61.90918 -44.18430 12848 ft 222 kts 22°
2026-04-30 12:24 61.92156 -44.16472 12850 ft 222 kts 22°
2026-04-30 12:24 61.93396 -44.14505 12850 ft 223 kts 22°
2026-04-30 12:25 61.94636 -44.12535 12856 ft 223 kts 22°
2026-04-30 12:25 61.95881 -44.10555 12857 ft 223 kts 22°
2026-04-30 12:25 61.97123 -44.08580 12804 ft 223 kts 22°
2026-04-30 12:25 61.98361 -44.06605 12803 ft 222 kts 22°
2026-04-30 12:26 61.99595 -44.04637 12800 ft 221 kts 22°
2026-04-30 12:26 62.00823 -44.02678 12799 ft 220 kts 22°
2026-04-30 12:26 62.02045 -44.00727 12800 ft 219 kts 22°
2026-04-30 12:26 62.03267 -43.98774 12799 ft 219 kts 22°
2026-04-30 12:27 62.04498 -43.96806 12800 ft 221 kts 22°
2026-04-30 12:27 62.05732 -43.94830 12801 ft 222 kts 22°
2026-04-30 12:27 62.06970 -43.92843 12749 ft 223 kts 23°
2026-04-30 12:27 62.08192 -43.90878 12749 ft 223 kts 23°
2026-04-30 12:28 62.09428 -43.88889 12753 ft 222 kts 22°
2026-04-30 12:28 62.10663 -43.86900 12750 ft 222 kts 22°
2026-04-30 12:28 62.11893 -43.84918 12733 ft 220 kts 22°
2026-04-30 12:28 62.13107 -43.82956 12736 ft 218 kts 22°
2026-04-30 12:29 62.14312 -43.81011 12732 ft 216 kts 23°
2026-04-30 12:29 62.15508 -43.79080 12754 ft 215 kts 22°
2026-04-30 12:29 62.16700 -43.77155 12717 ft 214 kts 22°
2026-04-30 12:29 62.17890 -43.75230 12715 ft 214 kts 22°
2026-04-30 12:30 62.19077 -43.73306 12712 ft 214 kts 22°
2026-04-30 12:30 62.20246 -43.71409 12717 ft 213 kts 22°
2026-04-30 12:30 62.21429 -43.69487 12714 ft 213 kts 23°
2026-04-30 12:30 62.22610 -43.67567 12719 ft 213 kts 21°
2026-04-30 12:31 62.23796 -43.65639 12721 ft 214 kts 23°
2026-04-30 12:31 62.24984 -43.63704 12722 ft 215 kts 22°
2026-04-30 12:31 62.26178 -43.61758 12722 ft 215 kts 23°
2026-04-30 12:31 62.27370 -43.59811 12722 ft 215 kts 22°
2026-04-30 12:32 62.28558 -43.57867 12721 ft 215 kts 23°
2026-04-30 12:32 62.29731 -43.55950 12723 ft 214 kts 22°
2026-04-30 12:32 62.30921 -43.54001 12715 ft 215 kts 22°
2026-04-30 12:32 62.32107 -43.52056 12724 ft 214 kts 22°
2026-04-30 12:33 62.33277 -43.50135 12723 ft 210 kts 22°
2026-04-30 12:33 62.34437 -43.48229 12730 ft 210 kts 22°
2026-04-30 12:33 62.35601 -43.46315 12716 ft 209 kts 22°
2026-04-30 12:33 62.36746 -43.44422 12824 ft 206 kts 24°
2026-04-30 12:34 62.37885 -43.42549 12783 ft 207 kts 25°
2026-04-30 12:34 62.39033 -43.40675 12783 ft 207 kts 26°
2026-04-30 12:34 62.40177 -43.38780 12783 ft 207 kts 27°
2026-04-30 12:34 62.41323 -43.36887 12772 ft 207 kts 26°
2026-04-30 12:35 62.42468 -43.34991 12777 ft 207 kts 26°
2026-04-30 12:35 62.43620 -43.33082 12765 ft 212 kts 27°
2026-04-30 12:35 62.44778 -43.31164 12774 ft 209 kts 27°
2026-04-30 12:35 62.45927 -43.29255 12772 ft 208 kts 27°
2026-04-30 12:36 62.47076 -43.27349 12825 ft 208 kts 27°
2026-04-30 12:36 62.48222 -43.25446 12824 ft 207 kts 27°
2026-04-30 12:36 62.49362 -43.23549 12825 ft 207 kts 27°
2026-04-30 12:36 62.50499 -43.21655 12823 ft 206 kts 27°
2026-04-30 12:37 62.51629 -43.19762 12844 ft 205 kts 27°
2026-04-30 12:37 62.52756 -43.17894 12847 ft 200 kts 27°
2026-04-30 12:37 62.53861 -43.16042 12837 ft 202 kts 26°
2026-04-30 12:37 62.54968 -43.14186 12834 ft 199 kts 27°
2026-04-30 12:38 62.56060 -43.12370 12836 ft 201 kts 28°
2026-04-30 12:38 62.57175 -43.10503 12859 ft 203 kts 26°
2026-04-30 12:38 62.58302 -43.08616 12856 ft 206 kts 27°
2026-04-30 12:38 62.59433 -43.06723 12869 ft 202 kts 27°
2026-04-30 12:39 62.60550 -43.04831 12855 ft 205 kts 27°
2026-04-30 12:39 62.61678 -43.02937 12846 ft 205 kts 27°
2026-04-30 12:39 62.62808 -43.01039 12855 ft 207 kts 26°
2026-04-30 12:39 62.63943 -42.99098 12851 ft 208 kts 29°
2026-04-30 12:40 62.65056 -42.97113 12849 ft 206 kts 27°
2026-04-30 12:40 62.66180 -42.95173 12848 ft 206 kts 27°
2026-04-30 12:40 62.67297 -42.93220 12859 ft 206 kts 27°
2026-04-30 12:40 62.68398 -42.91280 12858 ft 206 kts 27°
2026-04-30 12:41 62.69515 -42.89311 12859 ft 206 kts 27°
2026-04-30 12:41 62.70630 -42.87347 12859 ft 206 kts 27°
2026-04-30 12:41 62.71746 -42.85379 12865 ft 207 kts 28°
2026-04-30 12:41 62.72877 -42.83388 12844 ft 209 kts 28°
2026-04-30 12:42 62.73622 -42.82065 12858 ft 208 kts 30°
2026-04-30 12:42 62.74748 -42.80067 12859 ft 208 kts 27°
2026-04-30 12:42 62.75876 -42.78078 12853 ft 208 kts 28°
2026-04-30 12:42 62.77372 -42.75415 12851 ft 207 kts 27°
2026-04-30 12:43 62.78459 -42.73486 12868 ft 203 kts 27°
2026-04-30 12:43 62.79202 -42.72163 12874 ft 204 kts 27°
2026-04-30 12:43 62.80295 -42.70223 12871 ft 201 kts 28°
2026-04-30 12:43 62.81381 -42.68286 12866 ft 203 kts 27°
2026-04-30 12:44 62.82488 -42.66324 12869 ft 206 kts 27°
2026-04-30 12:44 62.83606 -42.64334 12856 ft 207 kts 28°
2026-04-30 12:44 62.84712 -42.62346 12854 ft 203 kts 27°
2026-04-30 12:44 62.85806 -42.60387 12862 ft 203 kts 27°
2026-04-30 12:45 62.86905 -42.58429 12859 ft 204 kts 27°
2026-04-30 12:45 62.88014 -42.56445 12876 ft 207 kts 28°
2026-04-30 12:45 62.89141 -42.54421 12869 ft 210 kts 27°
2026-04-30 12:45 62.90262 -42.52414 12852 ft 211 kts 28°
2026-04-30 12:46 62.91378 -42.50397 12849 ft 206 kts 28°
2026-04-30 12:46 62.92479 -42.48414 12855 ft 201 kts 27°
2026-04-30 12:46 62.93567 -42.46465 12882 ft 204 kts 28°
2026-04-30 12:46 62.94690 -42.44450 12858 ft 211 kts 28°
2026-04-30 12:47 62.95841 -42.42384 12865 ft 214 kts 28°
2026-04-30 12:47 62.96969 -42.40320 12865 ft 208 kts 28°
2026-04-30 12:47 62.98061 -42.38335 12862 ft 198 kts 27°
2026-04-30 12:47 62.99138 -42.36402 12851 ft 200 kts 28°
2026-04-30 12:48 63.00209 -42.34462 12875 ft 198 kts 26°
2026-04-30 12:48 63.01294 -42.32515 12849 ft 205 kts 27°
2026-04-30 12:48 63.02382 -42.30536 12863 ft 202 kts 28°
2026-04-30 12:48 63.03467 -42.28555 12868 ft 203 kts 27°
2026-04-30 12:49 63.04548 -42.26591 12876 ft 204 kts 27°
2026-04-30 12:49 63.05642 -42.24595 12875 ft 201 kts 28°
2026-04-30 12:49 63.06727 -42.22618 12840 ft 204 kts 25°
2026-04-30 12:49 63.07816 -42.20651 12873 ft 205 kts 28°
2026-04-30 12:50 63.08929 -42.18617 12863 ft 209 kts 28°
2026-04-30 12:50 63.10044 -42.16563 12862 ft 208 kts 28°
2026-04-30 12:50 63.11158 -42.14521 12852 ft 208 kts 28°
2026-04-30 12:50 63.12272 -42.12486 12856 ft 207 kts 28°
2026-04-30 12:51 63.13379 -42.10457 12857 ft 206 kts 28°
2026-04-30 12:51 63.14466 -42.08463 12857 ft 206 kts 28°
2026-04-30 12:51 63.15588 -42.06403 12865 ft 207 kts 28°
2026-04-30 12:51 63.16688 -42.04377 12866 ft 210 kts 29°
2026-04-30 12:52 63.17836 -42.02275 12874 ft 213 kts 30°
2026-04-30 12:52 63.18939 -42.00228 12869 ft 206 kts 29°
2026-04-30 12:52 63.20044 -41.98187 12878 ft 209 kts 27°
2026-04-30 12:52 63.21160 -41.96139 12868 ft 206 kts 28°
2026-04-30 12:53 63.22263 -41.94094 12873 ft 206 kts 28°
2026-04-30 12:53 63.23369 -41.92051 12865 ft 207 kts 28°
2026-04-30 12:53 63.24462 -41.90023 12874 ft 204 kts 28°
2026-04-30 12:53 63.25550 -41.88006 12870 ft 204 kts 28°
2026-04-30 12:54 63.26642 -41.85985 12872 ft 205 kts 28°
2026-04-30 12:54 63.27739 -41.83949 12880 ft 207 kts 28°
2026-04-30 12:54 63.28850 -41.81884 12869 ft 208 kts 28°
2026-04-30 12:54 63.29941 -41.79848 12862 ft 207 kts 28°
2026-04-30 12:55 63.31040 -41.77799 12885 ft 205 kts 27°
2026-04-30 12:55 63.32141 -41.75752 12868 ft 207 kts 28°
2026-04-30 12:55 63.33249 -41.73678 12865 ft 208 kts 28°
2026-04-30 12:55 63.34358 -41.71610 12854 ft 208 kts 29°
2026-04-30 12:56 63.35460 -41.69539 12871 ft 207 kts 28°
2026-04-30 12:56 63.36565 -41.67474 12876 ft 210 kts 28°
2026-04-30 12:56 63.37682 -41.65379 12881 ft 209 kts 29°
2026-04-30 12:56 63.38771 -41.63315 12876 ft 203 kts 28°
2026-04-30 12:57 63.39862 -41.61284 12887 ft 205 kts 28°
2026-04-30 12:57 63.40969 -41.59213 12881 ft 209 kts 29°
2026-04-30 12:57 63.42061 -41.57150 12875 ft 208 kts 29°
2026-04-30 12:57 63.43161 -41.55069 12887 ft 208 kts 29°
2026-04-30 12:58 63.44267 -41.52985 12877 ft 207 kts 29°
2026-04-30 12:58 63.45358 -41.50922 12878 ft 204 kts 29°
2026-04-30 12:58 63.46441 -41.48874 12877 ft 204 kts 28°
2026-04-30 12:58 63.47525 -41.46825 12883 ft 204 kts 28°
2026-04-30 12:59 63.48614 -41.44761 12894 ft 206 kts 29°
2026-04-30 12:59 63.49723 -41.42662 12882 ft 210 kts 29°
2026-04-30 12:59 63.50835 -41.40558 12868 ft 206 kts 28°
2026-04-30 12:59 63.51951 -41.38650 12882 ft 202 kts 27°
2026-04-30 13:00 63.53012 -41.36515 12890 ft 207 kts 32°
2026-04-30 13:00 63.54086 -41.34353 12897 ft 207 kts 30°
2026-04-30 13:00 63.55185 -41.32255 12882 ft 207 kts 30°
2026-04-30 13:00 63.56271 -41.30179 12883 ft 203 kts 28°
2026-04-30 13:01 63.57348 -41.28135 12882 ft 203 kts 29°
2026-04-30 13:01 63.58417 -41.26096 12881 ft 205 kts 29°
2026-04-30 13:01 63.59501 -41.24019 12878 ft 205 kts 29°
2026-04-30 13:01 63.60583 -41.21948 12887 ft 204 kts 32°
2026-04-30 13:02 63.61660 -41.19871 12878 ft 202 kts 33°
2026-04-30 13:02 63.62721 -41.17831 12888 ft 200 kts 32°
2026-04-30 13:02 63.63782 -41.15792 12886 ft 200 kts 32°
2026-04-30 13:02 63.64843 -41.13761 12884 ft 201 kts 32°
2026-04-30 13:03 63.65907 -41.11711 12881 ft 201 kts 32°
2026-04-30 13:03 63.66971 -41.09659 12883 ft 202 kts 32°
2026-04-30 13:03 63.68035 -41.07600 12879 ft 200 kts 32°
2026-04-30 13:03 63.69078 -41.05585 12879 ft 200 kts 32°
2026-04-30 13:04 63.70137 -41.03539 12882 ft 200 kts 32°
2026-04-30 13:04 63.71197 -41.01488 12884 ft 202 kts 32°
2026-04-30 13:04 63.72264 -40.99418 12877 ft 202 kts 32°
2026-04-30 13:04 63.73326 -40.97356 12879 ft 201 kts 32°
2026-04-30 13:05 63.74389 -40.95295 12878 ft 203 kts 32°
2026-04-30 13:05 63.75457 -40.93216 12875 ft 201 kts 32°
2026-04-30 13:05 63.76517 -40.91151 12874 ft 201 kts 32°
2026-04-30 13:06 63.78628 -40.87041 12869 ft 200 kts 32°
2026-04-30 13:06 63.79683 -40.84980 12868 ft 200 kts 32°
2026-04-30 13:06 63.80738 -40.82917 12869 ft 200 kts 32°
2026-04-30 13:06 63.81793 -40.80853 12869 ft 200 kts 32°
2026-04-30 13:07 63.82847 -40.78790 12869 ft 200 kts 32°
2026-04-30 13:07 63.83900 -40.76726 12874 ft 201 kts 32°